TimeEDT,TemperatureF,Dew PointF,Humidity,Sea Level PressureIn,VisibilityMPH,Wind Direction,Wind SpeedMPH,Gust SpeedMPH,PrecipitationIn,Events,Conditions,WindDirDegrees,DateUTC
12:49 AM,59.0,57.2,94,29.88,8.0,NW,5.8,-,0.00,,Overcast,320,2012-10-06 04:49:00
12:53 AM,59.0,55.9,90,29.85,8.0,Variable,3.5,-,0.00,,Overcast,0,2012-10-06 04:53:00
1:17 AM,59.0,55.4,88,29.85,8.0,Calm,Calm,-,N/A,,Overcast,0,2012-10-06 05:17:00
1:53 AM,57.0,54.0,89,29.83,8.0,North,3.5,-,N/A,,Overcast,360,2012-10-06 05:53:00
2:35 AM,55.4,51.8,88,29.83,10.0,North,3.5,-,0.00,Rain,Light Rain,350,2012-10-06 06:35:00
2:53 AM,55.0,52.0,89,29.81,10.0,Calm,Calm,-,0.00,Rain,Light Rain,0,2012-10-06 06:53:00
3:53 AM,52.0,48.0,86,29.81,9.0,North,3.5,-,0.01,Rain,Light Rain,360,2012-10-06 07:53:00
4:53 AM,51.1,48.0,89,29.78,10.0,Variable,4.6,-,0.03,Rain,Light Rain,0,2012-10-06 08:53:00
5:28 AM,51.8,48.2,88,29.82,5.0,Variable,3.5,-,0.01,Rain,Light Rain,0,2012-10-06 09:28:00
5:40 AM,50.0,48.2,94,29.83,3.0,Variable,6.9,-,0.05,Rain,Heavy Rain,0,2012-10-06 09:40:00
5:49 AM,50.0,48.2,94,29.83,3.0,NNW,5.8,-,0.08,Rain,Heavy Rain,340,2012-10-06 09:49:00
5:53 AM,50.0,48.0,93,29.85,3.0,Variable,3.5,-,0.09,Rain,Rain,0,2012-10-06 09:53:00
6:16 AM,50.0,48.2,94,29.85,3.0,WNW,3.5,-,0.07,Rain,Heavy Rain,300,2012-10-06 10:16:00
6:25 AM,50.0,48.2,94,29.84,3.0,NW,4.6,-,0.09,Rain,Heavy Rain,310,2012-10-06 10:25:00
7:10 AM,50.0,48.2,94,29.84,4.0,Calm,Calm,-,0.03,Rain,Heavy Rain,0,2012-10-06 11:10:00
7:17 AM,50.0,48.2,94,29.84,2.0,Calm,Calm,-,0.07,Rain,Heavy Rain,0,2012-10-06 11:17:00
7:27 AM,50.0,48.2,94,29.84,3.0,Variable,4.6,-,0.10,Rain,Rain,0,2012-10-06 11:27:00
7:45 AM,48.2,46.4,93,29.84,4.0,NW,5.8,-,0.13,Rain,Rain,320,2012-10-06 11:45:00
7:53 AM,48.9,46.9,93,29.85,8.0,NW,5.8,-,0.14,Rain,Light Rain,320,2012-10-06 11:53:00
8:26 AM,48.2,44.6,87,29.85,10.0,NW,4.6,-,0.00,,Overcast,310,2012-10-06 12:26:00
8:53 AM,48.0,45.0,89,29.87,10.0,WNW,5.8,-,0.00,,Overcast,290,2012-10-06 12:53:00
9:23 AM,48.2,44.6,87,29.87,10.0,West,3.5,-,N/A,,Overcast,270,2012-10-06 13:23:00
9:53 AM,48.0,45.0,89,29.88,10.0,Variable,3.5,-,0.00,,Overcast,0,2012-10-06 13:53:00
10:53 AM,50.0,44.1,80,29.89,10.0,WSW,8.1,-,N/A,,Overcast,250,2012-10-06 14:53:00
11:53 AM,50.0,43.0,77,29.90,10.0,West,4.6,18.4,N/A,,Overcast,270,2012-10-06 15:53:00
12:06 PM,50.0,41.0,71,29.90,10.0,West,11.5,18.4,N/A,,Overcast,270,2012-10-06 16:06:00
12:53 PM,51.1,41.0,68,29.91,10.0,WNW,8.1,-,N/A,,Overcast,290,2012-10-06 16:53:00
1:53 PM,57.0,41.0,55,29.89,10.0,WSW,13.8,-,N/A,,Partly Cloudy,250,2012-10-06 17:53:00
2:53 PM,55.9,37.9,51,29.90,10.0,West,8.1,20.7,N/A,,Scattered Clouds,260,2012-10-06 18:53:00
3:53 PM,54.0,36.0,51,29.92,10.0,West,11.5,19.6,N/A,,Partly Cloudy,260,2012-10-06 19:53:00
4:53 PM,53.1,35.1,50,29.93,10.0,West,12.7,20.7,N/A,,Clear,260,2012-10-06 20:53:00
5:53 PM,53.1,35.1,50,29.94,10.0,WSW,11.5,-,N/A,,Overcast,250,2012-10-06 21:53:00
7:53 PM,50.0,36.0,59,30.00,10.0,West,11.5,18.4,N/A,,Overcast,260,2012-10-06 23:53:00
8:53 PM,48.0,34.0,58,30.03,10.0,West,11.5,19.6,N/A,,Mostly Cloudy,260,2012-10-07 00:53:00
9:53 PM,46.9,33.1,59,30.04,10.0,WSW,8.1,-,N/A,,Scattered Clouds,250,2012-10-07 01:53:00
10:53 PM,46.0,34.0,63,30.04,10.0,WSW,6.9,-,N/A,,Clear,250,2012-10-07 02:53:00
11:53 PM,44.1,35.1,71,30.05,10.0,WSW,5.8,-,N/A,,Clear,240,2012-10-07 03:53:00